Location: Slidell
(30.2789°N, 89.7378°W)
Time: 08:31:33
(UTC-05:00)

Hubble Space Telescope - Visible Passes

Search period start: 21 July 2019 00:00
Search period end: 31 July 2019 00:00
Orbit: 536 x 540 km, 28.5° (Epoch: 20 July)

Date Brightness Start Highest point End Pass type
(mag) Time Alt. Az. Time Alt. Az. Time Alt. Az.
25 Jul 2.4 05:37:16 10° SSW 05:40:35 23° SSE 05:43:55 10° ESE visible
26 Jul 2.1 05:26:44 12° SW 05:30:00 28° SSE 05:33:34 10° E visible
27 Jul 1.8 05:16:44 16° SW 05:19:24 34° SSE 05:23:10 10° E visible
28 Jul 1.5 05:06:42 22° SW 05:08:49 40° SSE 05:12:43 10° E visible
29 Jul 1.2 04:56:40 30° SW 04:58:15 47° SSE 05:02:14 10° E visible
30 Jul 1.0 04:46:39 41° SW 04:47:42 53° S 04:51:45 10° E visible
